Lapse_Rate
-0.3 0.1 0.3 0.4 0.3 0.7 1.3 1.9 1.6 2.8 3.1 3.8 4.2 5.4 5.6 5.9 6.0 5.9 6.1 5.5 6.9 7.6 9.3 9.4 9.4 9.3 9.4 9.3 9.3 9.0 8.9 8.9 9.4 9.1 9.0 9.2 9.2 9.2
0.3 0.8 0.8 1.1 1.0 0.9 1.5 2.3 2.5 2.8 3.0 3.1 3.6 4.2 5.6 5.7 6.5 6.0 5.4 6.0 5.4 6.2 7.1 7.8 9.3 9.3 9.3 9.4 9.3 9.3 9.3 9.2 9.0 9.0 9.0 9.0 9.1 9.2
0.6 1.3 1.3 2.0 1.6 1.5 1.5 2.7 2.8 3.4 3.2 2.8 3.7 4.3 3.5 5.0 5.8 6.2 6.6 6.0 5.1 5.6 5.9 6.5 7.3 8.9 9.2 9.4 9.3 9.3 9.2 9.0 9.1 9.1 9.0 9.0 9.0 9.1
0.9 1.6 1.5 3.2 2.4 2.3 2.4 2.9 3.0 4.0 4.4 4.3 3.5 4.3 4.6 5.8 6.3 6.2 7.2 7.8 7.0 7.0 6.9 6.9 7.2 7.5 8.8 9.3 9.2 9.3 9.3 9.3 9.1 9.0 8.9 9.0 8.9 9.1
1.4 1.3 2.3 2.4 2.2 2.4 2.8 2.6 3.4 4.8 4.4 5.3 5.2 5.1 4.8 5.9 6.0 6.6 6.4 5.8 5.8 6.8 6.6 6.6 7.7 8.0 7.4 7.3 7.9 9.3 9.3 9.3 9.4 9.1 8.9 8.7 8.8 9.1
1.5 1.9 2.3 2.3 2.0 2.2 3.5 2.5 3.3 3.4 4.5 4.6 5.5 5.6 5.9 5.6 5.8 5.7 5.3 5.3 4.9 6.0 5.9 6.9 6.9 6.5 6.7 6.9 7.0 7.7 9.1 9.2 8.9 9.0 9.1 8.9 9.1 9.1
1.7 2.5 1.6 2.3 3.1 3.4 3.5 2.7 3.7 4.1 4.7 5.9 7.2 6.2 5.6 6.0 6.4 6.1 6.4 6.4 5.5 5.9 6.0 5.4 6.0 5.5 5.8 6.5 7.1 7.7 9.3 9.2 9.3 9.4 9.1 8.8 9.2 9.1
2.2 2.6 2.3 3.0 3.9 4.2 4.7 5.4 7.1 7.8 7.6 7.5 6.3 6.1 5.8 6.2 6.6 6.8 6.8 6.8 7.5 6.1 6.1 5.0 6.6 6.1 6.7 7.2 8.4 9.2 8.8 9.3 9.3 9.2 9.1 9.2 9.0 9.0
2.3 3.0 4.4 4.6 4.3 3.8 5.3 6.7 6.9 8.0 9.0 7.7 6.7 6.2 6.2 6.6 7.7 7.4 6.8 7.0 7.1 7.1 7.2 6.9 7.0 6.7 7.9 7.9 6.8 7.0 9.2 9.3 9.1 9.1 9.0 7.5 8.9 9.2
2.6 2.9 3.4 3.7 5.0 5.5 5.0 4.5 5.0 5.7 6.8 7.9 7.3 6.6 8.2 9.0 8.6 8.1 7.5 7.2 7.0 6.8 7.1 6.9 7.0 7.1 7.2 6.4 6.6 7.0 9.1 9.2 8.9 9.4 9.3 9.3 9.2 9.0
3.1 3.6 3.9 4.0 5.9 6.2 4.3 4.0 3.9 4.4 6.5 7.2 7.9 8.6 9.2 9.4 9.3 8.4 7.0 6.9 6.9 7.5 6.2 7.4 7.7 7.4 7.7 6.6 7.0 8.0 8.4 7.8 8.8 9.3 9.3 9.3 9.2 9.2
3.8 4.2 5.2 4.5 5.6 5.8 4.3 3.9 3.8 4.5 4.4 4.6 5.7 6.4 7.1 7.6 8.5 7.6 7.0 6.7 6.8 7.2 6.3 7.5 7.3 7.7 7.8 7.3 6.9 6.6 7.3 7.1 7.9 8.5 9.1 9.3 9.2 8.9
4.9 4.5 4.9 5.2 5.4 5.5 5.9 4.5 6.2 7.9 6.4 6.2 6.1 5.7 6.0 5.9 6.1 6.3 6.6 6.8 6.5 6.4 6.5 8.4 7.5 7.4 7.8 7.9 7.7 7.2 7.3 7.0 7.0 6.9 7.2 7.8 8.1 8.9
4.0 3.6 4.3 5.2 5.4 5.7 5.5 7.1 9.2 8.6 6.6 6.4 6.3 6.5 7.5 6.4 6.1 6.4 6.6 6.8 6.9 6.7 6.9 7.0 7.1 7.5 7.5 7.3 7.4 7.3 7.1 7.0 7.2 6.8 6.9 7.3 7.8 8.0
4.1 4.7 5.4 5.3 5.5 5.2 6.9 8.2 7.3 6.0 6.2 6.2 7.0 7.2 6.8 6.6 6.4 6.5 6.7 6.7 6.4 5.8 6.3 6.4 6.8 7.0 7.3 7.3 7.6 7.4 8.1 6.9 6.5 6.4 6.9 6.8 6.9 7.1
4.2 4.6 5.1 5.4 6.2 6.6 5.9 5.5 5.7 6.0 6.6 6.0 6.5 6.8 7.0 6.9 6.7 6.9 6.2 6.1 5.8 5.3 5.8 6.3 6.8 7.0 6.9 6.9 7.4 7.4 7.0 7.4 7.2 7.2 7.4 7.3 7.5 7.5
4.1 3.3 3.7 4.7 4.8 4.6 4.4 4.8 5.2 5.6 6.0 6.4 6.7 6.8 7.1 7.2 6.8 6.3 5.8 5.6 5.7 5.6 5.7 6.0 6.5 6.7 6.5 6.7 7.3 7.1 6.9 7.2 7.5 7.5 7.6 7.4 7.2 7.1
3.9 4.0 4.3 4.4 4.4 4.7 5.2 5.3 5.7 6.5 6.8 6.9 6.7 6.6 6.5 6.1 5.6 5.7 5.5 5.2 5.7 5.8 6.0 5.9 6.1 6.4 6.5 6.7 8.4 7.6 7.4 7.0 6.6 6.8 6.8 6.8 6.8 6.5
3.8 3.8 3.5 3.7 4.3 5.0 5.1 5.7 6.1 6.4 6.4 5.7 5.6 5.4 5.6 5.2 5.9 5.4 5.4 5.9 5.6 5.7 5.3 6.2 6.8 6.7 6.8 6.8 7.0 8.1 7.3 6.2 6.5 6.2 6.6 6.7 7.1 6.9
3.6 3.1 3.2 4.0 4.5 4.8 5.1 5.1 5.2 5.1 5.0 5.1 5.1 5.1 5.6 6.3 5.7 5.5 5.2 5.5 6.0 6.3 6.2 6.0 6.2 6.3 6.6 6.7 6.9 5.5 6.0 7.1 6.9 7.1 7.2 7.2 7.0 7.6
3.0 3.4 3.8 4.1 4.4 4.6 4.7 4.7 4.7 5.0 6.5 5.2 4.9 5.5 5.6 5.3 4.9 5.0 5.1 6.5 7.3 6.0 5.9 6.0 6.5 8.0 6.9 5.8 5.5 6.1 5.9 7.3 8.3 7.8 7.3 6.9 6.5 6.5
3.3 3.5 3.6 3.6 3.8 4.7 5.0 5.1 5.2 5.1 5.0 4.9 4.8 4.7 4.8 5.0 4.9 4.9 5.0 5.2 5.3 5.8 5.8 6.2 6.6 6.8 6.1 5.8 5.9 6.4 6.9 6.4 6.2 6.5 7.2 7.8 6.9 6.8
2.7 2.4 2.8 4.3 4.6 5.0 5.7 4.6 5.1 5.7 5.2 4.2 4.1 4.2 4.2 4.3 4.9 5.1 5.2 5.5 5.8 5.8 6.0 6.6 6.5 6.6 6.5 6.1 7.0 6.7 5.9 5.8 6.1 5.8 4.6 6.7 7.5 7.7
Wind_Speed
5 5 4 3 4 4 3 2 3 1 2 2 3 9 13 13 15 15 20 14 20 22 23 24 24 23 25 26 26 25 26 26 26 26 26 26 23 25
4 5 4 3 3 4 3 2 2 2 2 1 2 4 13 12 14 20 16 20 21 22 25 26 26 26 26 27 26 26 26 25 26 26 26 25 24 23
5 5 5 3 3 3 3 1 1 1 2 3 2 7 5 8 14 14 19 19 17 25 28 28 30 28 28 26 26 27 26 26 26 26 26 26 25 23
6 5 5 3 3 3 2 1 1 1 1 5 3 3 4 11 10 13 14 13 18 20 25 28 29 28 30 28 32 30 28 27 26 26 26 26 27 26
6 6 4 4 3 3 2 2 2 2 2 2 4 2 2 4 7 8 10 14 16 20 23 24 25 27 32 31 30 29 28 27 26 26 25 24 25 25
5 5 5 5 5 4 3 4 5 4 4 3 3 4 2 4 4 3 7 7 7 18 19 22 23 27 26 28 28 28 27 27 27 28 28 27 26 25
6 6 8 6 5 4 3 4 4 3 3 3 4 3 4 6 5 4 6 7 9 9 9 15 18 19 21 24 26 26 27 31 33 33 29 26 26 24
5 5 7 6 4 3 4 6 7 4 2 3 3 4 5 3 5 6 6 8 7 9 10 10 15 9 17 20 25 30 35 33 30 28 29 28 24 23
5 4 3 6 3 7 7 9 10 11 11 6 4 3 4 4 7 8 8 6 7 8 9 10 11 10 16 19 29 33 31 27 25 28 30 27 23 22
6 6 5 5 5 5 4 5 5 7 9 9 4 5 9 14 10 8 7 6 6 6 9 10 9 9 17 20 29 27 22 27 36 31 30 30 28 28
6 9 6 5 5 9 5 5 5 5 11 16 19 19 19 19 19 9 6 7 9 9 8 6 7 11 9 10 16 18 31 30 32 31 30 30 30 30
4 6 6 5 8 10 4 4 4 5 6 7 11 12 15 18 16 13 6 7 9 8 1 8 9 8 9 4 10 18 18 26 31 30 30 29 28 19
4 3 4 8 9 10 10 3 5 9 8 5 4 4 8 9 11 13 14 5 8 8 14 10 9 9 7 12 7 12 18 19 20 23 25 26 27 26
4 4 4 8 9 10 8 12 12 11 3 3 4 5 6 6 9 15 17 16 16 16 23 19 8 10 11 12 13 12 12 18 15 9 16 20 23 23
5 5 6 8 8 8 11 12 12 4 5 4 5 5 5 10 16 14 15 17 18 21 19 19 10 11 10 12 13 13 14 12 13 8 9 9 9 12
7 6 8 10 10 9 7 8 7 5 5 4 5 6 10 5 8 8 7 8 8 10 21 20 19 13 11 11 12 13 12 10 11 10 9 9 13 15
5 4 4 3 3 3 4 4 4 4 5 5 6 7 8 8 8 7 7 8 9 10 11 11 21 21 16 14 12 11 12 11 9 9 10 10 9 9
6 3 3 3 3 4 4 5 5 8 6 6 6 7 8 7 9 9 8 8 10 11 12 11 11 11 10 12 15 9 9 9 10 11 11 10 10 9
3 3 3 3 3 3 3 4 5 6 8 5 6 6 7 8 12 9 9 9 10 11 12 10 10 9 11 12 11 17 9 10 10 10 9 9 10 10
3 3 2 1 2 3 3 3 5 5 6 6 6 7 7 8 9 9 10 11 11 11 11 11 10 9 9 9 12 14 21 9 9 10 9 9 11 25
3 1 1 1 2 2 4 5 6 6 7 7 7 6 7 8 10 10 11 21 20 12 12 12 12 25 10 7 8 11 12 20 17 11 11 9 9 9
1 1 1 1 2 4 5 5 6 7 7 7 7 7 8 8 10 12 11 12 12 12 12 12 12 9 8 8 11 13 9 11 22 23 24 19 9 7
1 1 1 3 5 7 6 5 6 8 9 7 8 9 9 10 11 12 12 12 13 13 12 11 10 9 10 8 12 10 15 13 10 10 12 22 24 25
Wind_Direction
102 98 104 96 86 87 73 87 132 16 302 316 10 11 356 351 339 343 331 322 335 331 334 334 330 329 325 321 318 315 314 313 309 306 307 303 305 302
114 101 98 86 109 106 107 68 73 132 264 358 310 313 341 340 341 335 340 339 330 335 334 330 330 327 326 324 319 315 311 312 309 308 303 303 302 302
109 111 102 85 82 86 84 93 73 117 268 300 304 318 331 334 321 334 336 326 333 336 332 330 329 328 327 323 321 322 320 313 311 307 305 302 302 300
114 124 117 118 96 81 79 45 58 289 195 288 300 303 320 317 337 328 319 350 340 329 329 325 326 328 324 327 324 318 315 315 309 305 300 298 298 298
122 111 114 108 82 64 39 4 341 331 339 298 295 300 307 329 331 315 346 334 326 331 325 325 331 326 324 321 322 321 324 316 309 304 303 305 299 295
92 93 87 69 66 45 17 23 23 2 331 343 307 309 311 322 308 321 328 328 325 326 321 327 329 321 322 323 322 319 315 311 312 310 305 303 296 293
103 108 94 94 82 56 24 18 346 316 311 299 304 304 316 326 321 332 320 325 321 314 314 321 320 317 316 317 317 310 318 319 313 308 302 300 297 295
123 123 135 130 130 26 4 328 287 278 309 290 291 296 296 316 322 322 321 323 324 324 321 317 319 311 311 305 307 315 313 315 312 308 306 300 293 289
123 108 108 110 65 53 344 329 327 326 327 315 308 305 311 305 306 309 306 300 300 309 311 309 315 306 304 310 307 306 313 313 320 323 319 319 307 300
107 96 76 53 49 10 312 335 324 328 310 306 317 300 296 308 302 296 299 298 294 290 301 302 311 302 310 302 302 309 318 324 318 315 316 313 310 304
106 104 88 64 12 357 22 345 336 327 346 338 326 321 320 325 324 331 334 329 319 318 312 296 315 305 301 294 287 319 317 315 315 314 314 314 309 303
130 127 108 78 12 355 17 356 336 317 336 332 322 335 349 338 344 346 336 327 320 316 291 318 311 320 315 275 316 310 310 309 310 310 310 310 309 300
105 84 68 35 7 359 1 355 329 339 331 322 337 338 321 324 332 327 316 300 304 290 295 309 309 307 297 309 311 309 306 305 301 301 301 305 307 301
96 88 55 23 10 11 14 349 344 359 339 340 335 320 323 329 318 309 301 294 286 278 292 296 288 300 304 303 304 307 305 300 297 298 300 302 309 306
101 74 48 27 19 13 4 3 9 354 347 344 334 327 317 306 303 301 299 297 289 290 294 290 285 296 292 294 297 299 303 306 298 291 297 299 297 296
61 64 51 47 31 26 25 17 10 349 345 329 328 313 305 305 309 308 302 307 307 304 305 303 300 293 290 288 288 293 297 294 299 294 289 287 290 284
83 64 55 45 28 17 18 3 343 334 336 320 313 315 313 314 307 310 305 308 306 307 307 309 305 294 282 278 283 288 291 291 292 295 299 295 291 282
75 66 60 41 28 17 355 338 333 327 320 316 310 307 308 314 315 315 315 308 304 302 301 302 302 297 298 284 269 283 291 292 293 293 291 287 289 287
72 62 54 42 13 350 326 318 313 313 309 301 299 301 315 313 317 311 306 300 300 296 295 296 298 299 300 299 306 306 304 293 293 288 281 273 279 283
66 56 49 15 337 315 299 296 310 311 306 299 308 313 304 299 304 304 300 299 296 294 296 301 297 293 291 298 309 303 303 289 289 289 291 284 277 279
62 48 46 360 314 299 304 308 303 304 311 315 293 295 298 302 301 295 294 299 302 300 296 297 296 298 293 289 292 298 303 302 301 300 300 291 288 285
58 32 360 305 313 323 306 304 303 306 303 290 302 302 299 296 293 294 292 292 294 291 290 291 294 298 290 281 289 295 300 310 310 304 301 292 290 283
9 295 330 343 317 309 293 290 303 311 311 310 303 300 297 296 294 291 290 291 291 292 291 294 300 299 290 284 293 301 302 306 311 312 310 308 303 297